Regional Weather Roundup
Issued by NWS Upton, NY

Current Version | Previous Version | Text Only | Print | Product List | Glossary Off
Versions: 1 2 3 4 5 6 7 8 9 10 11 12 13 14 15 16 17 18 19 20 21 22 23 24 25 26 27 28 29 30 31 32 33 34 35 36 37 38 39 40 41 42 43 44 45 46 47 48 49

000
ASUS41 KOKX 250607
RWROKX

REGIONAL WEATHER ROUNDUP
NATIONAL WEATHER SERVICE NEW YORK NY
200 AM EDT SAT APR 25 2015

NOTE: "FAIR" INDICATES FEW OR NO CLOUDS BELOW 12,000 FEET WITH NO
SIGNIFICANT WEATHER AND/OR OBSTRUCTIONS TO VISIBILITY.

NYZ071-072-176-178-NJZ106-104-250700-
NEW YORK CITY METRO AREA


CITY           SKY/WX    TMP DP  RH WIND       PRES   REMARKS
CENTRAL PARK   FAIR      39  20  46 NW8       29.94F WCI  33
LAGUARDIA APRT FAIR      39  23  52 NW14      29.91F WCI  31
KENNEDY INTL   FAIR      40  20  44 NW13      29.92F WCI  32
NEWARK/LIBERTY FAIR      39  21  48 NW7       29.93F WCI  34
BRNX BOT. GARD   N/A     37  21  52 W8        29.93S WCI  31
TETERBORO      FAIR      37  21  52 W3        29.92S
$$

NYZ177-179-078>081-250700-
LONG ISLAND NEW YORK

CITY           SKY/WX    TMP DP  RH WIND       PRES   REMARKS
FARMINGDALE    FAIR      36  21  54 W3        29.90F
ISLIP          FAIR      35  21  56 W7        29.87F WCI  29
SHIRLEY        FAIR      36  22  56 W6        29.89F WCI  31
WESTHAMPTON    FAIR      34  20  56 W7        29.89F WCI  28
MONTAUK POINT    N/A     40  23  50 NW13      29.86F WCI  32
$$

NYZ052-065-067-250700-
HUDSON VALLEY

CITY           SKY/WX    TMP DP  RH WIND       PRES   REMARKS
WHITE PLAINS   FAIR      35  20  54 W9        29.87F WCI  28
NEWBURGH       CLEAR     32  23  69 W9        29.89F WCI  24
MONTGOMERY     FAIR      33  21  61 W9        29.88F WCI  25
POUGHKEEPSIE   FAIR      35  21  56 SW8       29.87F WCI  29
ALBANY         FAIR      35  21  56 NW7       29.88S WCI  29
$$

NJZ001-105-106-008-010-013-015-019>022-104-250700-
NEW JERSEY

CITY           SKY/WX    TMP DP  RH WIND       PRES   REMARKS
NEWARK/LIBERTY FAIR      39  21  48 NW7       29.93F WCI  34
TETERBORO      FAIR      37  21  52 W3        29.92S
CALDWELL       FAIR      36  21  54 NW5       29.93F WCI  32
MORRISTOWN     FAIR      37  21  52 CALM      29.93F
SOMERVILLE     FAIR      30  23  75 CALM      29.92F
SUSSEX         FAIR      29  22  75 W3        29.92F
ANDOVER          N/A     31  23  72 CALM      29.92F
TRENTON        FAIR      36  20  52 CALM      29.94S
MILLVILLE      FAIR      33  26  75 CALM      29.97R
ATLANTIC CITY  FAIR      36  24  62 CALM      29.97R
WRIGHTSTOWN    FAIR      36  21  55 W5        29.93S WCI  32
TOMS RIVER     FAIR      28  21  74 CALM      29.95S
BELMAR         FAIR      36  18  48 NW5       29.94S WCI  32
$$

PAZ047>061-062-071-250700-
EASTERN PENNSYLVANIA

CITY           SKY/WX    TMP DP  RH WIND       PRES   REMARKS
PHILADELPHIA   FAIR      43  20  39 NW8       29.98R
ALLENTOWN      FAIR      33  21  61 SW6       29.94S WCI  28
SCRANTON       FAIR      33  24  69 N5        29.91F WCI  29
$$

CTZ002-004>006-009-010-012-RIZ004-006-007-MAZ004-011-015-250700-
SOUTHERN NEW ENGLAND
 IN CT

CITY           SKY/WX    TMP DP  RH WIND       PRES   REMARKS
BRADLEY INTL   FAIR      36  20  52 NW6       29.83F WCI  31
HARTFORD       FAIR      37  20  50 VRB6      29.85F WCI  32
DANBURY        FAIR      30  20  66 W3        29.88F
WTRBRY/OXFORD  FAIR      30  16  55 W3        29.86F
BRIDGEPORT     FAIR      36  23  59 W3        29.89F
MERIDEN        FAIR      30  22  72 N3        29.86F
NEW HAVEN      FAIR      37  23  56 W7        29.87F WCI  32
CHESTER        FAIR      36  21  55 NW7       29.84S WCI  30
GROTON         FAIR      35  20  54 W8        29.84S WCI  29
WILLIMANTIC    FAIR      35  21  56 CALM      29.82F

 IN RI

CITY           SKY/WX    TMP DP  RH WIND       PRES   REMARKS
PROVIDENCE     FAIR      36  20  52 W7        29.81F WCI  30
BLOCK ISLAND   FAIR      37  19  48 NW13      29.82F WCI  29
WESTERLY       FAIR      36  20  52 W5        29.84F WCI  32

 IN MA

CITY           SKY/WX    TMP DP  RH WIND       PRES   REMARKS
BOSTON         FAIR      40  22  48 W13       29.77F WCI  32
WORCESTER      FAIR      33  20  58 NW14      29.75F WCI  23
WESTFIELD      FAIR      36  20  52 VRB3      29.82F
PROVINCETOWN   FAIR     N/A N/A N/A NW18G25   29.76F
NANTUCKET      FAIR      40  25  55 NW12      29.77F WCI  33
$$

ANZ330-335-338-340-345-350-353-355-250700-
COASTAL MARINE OBSERVATIONS


STATION/POSITION TIME  SKY/WX   TEMP    WIND        PRES    VSBY  WAVE
                                AIR SEA DIR/SP/G                  HT/PER
                 (UTC)          (F)     (DEG/KT/KT) (MB)    (MI)  (FT/S)
NY HARB ENTRANCE 0550            41 44  320/ 19/ 23 1012.4          3/ 4
4S FIRE IS       0503               43                N/A           2/12
20S FIRE ISLAND  0550            40 43  340/ 16/ 17 1012.6          4/ 5
23SW MTP         NOT AVBL
HUDSON CANYON    NOT AVBL
EXECUTION ROCKS  NOT AVBL
WESTERN LI SOUND NOT AVBL
CENTRAL LI SOUND NOT AVBL
EASTERN LI SOUND 0500            40     300/ 12/ 17   N/A
ROBBINS REEF     0500            40     330/ 10/ 13 1012.6
$$


>>>>>>>>>>>>>>>>>>>>>>>>>>>> KEY <<<<<<<<<<<<<<<<<<<<<<<<<<<
>                                                          <
>     SKY/WX - SKY CONDITION/PRESENT WEATHER               <
>     TMP    - TEMPERATURE IN FAHRENHEIT                   <
>     DP     - DEWPOINT IN FAHRENHEIT                      <
>     RH     - RELATIVE HUMIDITY IN PERCENT                <
>     WIND   - DIRECTION AND SPEED IN MPH                  <
>     PRES   - MEAN SEA LEVEL PRESSURE IN INCHES OF HG     <
>     WCI    - WIND CHILL INDEX                            <
>     VSB    - VISIBILITY IN MILES                         <
>     HX     - HEAT INDEX                                  <
>     TC     - TEMPERATURE IN CELSIUS                      <
>     VRB    - VARIABLE WIND DIRECTION                     <
>                                                          <
>>>>>>>>>>>>>>>>>>>>>>>>>>>> KEY <<<<<<<<<<<<<<<<<<<<<<<<<<<





USA.gov is the U.S. government's official web portal to all federal, state and local government web resources and services.